Find Starlink 11077

NORAD ID: 58707 Int'l Des: 2024-002 Owner: SPXS Country: US Constellation: starlink operational
LEOCIRCULAR

Current View

Loading 3D Globe...

About Starlink 11077

Starlink 11077 (NORAD 58707) is a starlink constellation satellite (v2 mini d2c) launched Jan 3, 2024 by SPXS of US. It operates in LEO, CIRCULAR orbit with a mass of 960.00 kg.

About Starlink 11077

Description loading...

Upcoming Passes

Passes for default location (London). Set your location on the main map for personalized predictions.

Altitude History

Loading altitude history...

Two-Line Element Set

1 58707U 24002C 26167.17206093 -.00000083 00000-0 41736-5 0 9993
2 58707 53.1591 148.6284 0001122 56.7474 303.3652 15.69710824141905
Epoch: Jun 16, 2026 • Age: 5 hours

Current Status

Altitude 360.2 km
Velocity 7.70 km/s
Sub-Earth Point 26.23°N, 131.73°E
Launch Date Jan 3, 2024
Age 2.4 years
Type internet

Technical Details

Classification Payload
Mass 960.00 kg
Dry Mass 910.00 kg
Total Mass 960.00 kg
Length 0.30 m
Diameter 4.10 m
Span 29.00 m
Shape Box + pan
Manufacturer SPXS
Bus Type Starlink V2MD
Phase Status In Orbit
Owner/State SPXS/US

Most Searched